WZ8H Weather Reports


time (UTC)temp
C
wind
direction
speed
KPH
gust
KPH
rain 1hr
cm
rain 24hr
cm
rain mn
cm
humidity
%
barometer
mb
20260903060012 25 85 3.2 9.7 0.00 0.00 0.00 84 1014.3
20260903055459 25 67 4.8 12.9 0.00 0.00 0.00 83 1014.4
20260903054956 25 54 6.4 16.1 0.00 0.00 0.00 83 1014.4
20260903054457 25 51 6.4 16.1 0.00 0.00 0.00 82 1014.5
20260903053956 25 86 6.4 16.1 0.00 0.00 0.00 81 1014.6
20260903053430 26 24 6.4 17.7 0.00 0.00 0.00 80 1014.5
20260903052926 26 40 4.8 17.7 0.00 0.00 0.00 79 1014.5
20260903052401 27 119 4.8 12.9 0.00 0.00 0.00 80 1014.5
20260903051833 27 257 6.4 20.9 0.00 0.00 0.00 83 1014.6
20260903051307 27 342 6.4 20.9 0.00 0.00 0.00 85 1014.4
20260903050742 27 355 4.8 12.9 0.00 0.00 0.00 86 1014.2
20260903050222 27 259 3.2 12.9 0.00 0.00 0.00 86 1013.2
20260903045715 27 214 3.2 12.9 0.00 0.00 0.00 86 1013.2
20260903045212 27 259 3.2 12.9 0.00 0.00 0.00 86 1013.1
20260903044710 27 232 3.2 6.4 0.00 0.00 0.00 86 1013.2
20260903044202 27 234 3.2 9.7 0.00 0.00 0.00 86 1013.0
20260903043647 27 222 3.2 9.7 0.00 0.00 0.00 86 1013.1
20260903043146 27 234 3.2 8.0 0.00 0.00 0.00 85 1012.8
20260903042644 27 230 4.8 16.1 0.00 0.00 0.00 85 1012.8
20260903042147 28 262 4.8 16.1 0.00 0.00 0.00 85 1012.8
20260903041621 28 261 4.8 12.9 0.00 0.00 0.00 85 1012.8
20260903041117 28 230 3.2 12.9 0.00 0.00 0.00 85 1012.6
20260903040550 28 250 3.2 9.7 0.00 0.00 0.00 84 1012.6
20260903040031 28 213 4.8 11.3 0.00 0.00 0.00 84 1012.6
20260903035527 28 225 4.8 19.3 0.00 0.00 0.00 84 1012.5
20260903034957 28 214 4.8 19.3 0.00 0.00 0.00 84 1012.6
20260903034455 28 233 4.8 11.3 0.00 0.00 0.00 85 1012.4
20260903033926 28 271 4.8 12.9 0.00 0.00 0.00 85 1012.4
20260903033357 28 192 4.8 16.1 0.00 0.00 0.00 85 1012.3
20260903032855 28 230 4.8 16.1 0.00 0.00 0.00 85 1012.2
20260903032327 28 156 4.8 11.3 0.00 0.00 0.00 85 1012.1
20260903031828 28 232 3.2 11.3 0.00 0.00 0.00 85 1012.0
20260903031259 28 229 3.2 11.3 0.00 0.00 0.00 85 1011.9
20260903030731 28 240 3.2 11.3 0.00 0.00 0.00 85 1011.8
20260903030230 28 221 3.2 11.3 0.00 0.00 0.00 85 1011.9
20260903025708 28 267 3.2 14.5 0.00 0.00 0.00 85 1012.1
20260903025201 28 267 3.2 14.5 0.00 0.00 0.00 84 1012.2
20260903024642 28 275 3.2 11.3 0.00 0.00 0.00 84 1012.3
20260903024133 28 282 3.2 9.7 0.00 0.00 0.00 84 1012.3
20260903023605 28 248 3.2 9.7 0.00 0.00 0.00 84 1012.6
20260903023035 28 259 3.2 9.7 0.00 0.00 0.00 84 1012.7
20260903022533 28 333 3.2 11.3 0.00 0.00 0.00 83 1012.8
20260903022030 28 235 3.2 11.3 0.00 0.00 0.00 83 1012.8
20260903021530 28 256 1.6 6.4 0.00 0.00 0.00 82 1012.9
20260903021023 28 238 1.6 8.0 0.00 0.00 0.00 82 1012.8
20260903020524 28 207 1.6 8.0 0.00 0.00 0.00 81 1012.9
20260903020018 28 236 1.6 8.0 0.00 0.00 0.00 81 1012.8
20260903015516 28 236 1.6 8.0 0.00 0.00 0.00 81 1013.0
20260903014948 28 209 3.2 6.4 0.00 0.00 0.00 81 1012.9
20260903014422 28 252 1.6 6.4 0.00 0.00 0.00 81 1012.9
20260903013920 28 240 1.6 4.8 0.00 0.00 0.00 81 1012.9
20260903013416 28 242 1.6 4.8 0.00 0.00 0.00 81 1013.0
20260903012914 28 239 1.6 4.8 0.00 0.00 0.00 81 1013.0
20260903012345 28 175 1.6 6.4 0.00 0.00 0.00 80 1013.0
20260903011842 28 157 1.6 6.4 0.00 0.00 0.00 80 1013.1
20260903011314 28 239 0.0 4.8 0.00 0.00 0.00 81 1013.0
20260903010749 28 242 0.0 0.0 0.00 0.00 0.00 81 1013.0
20260903010221 28 242 0.0 0.0 0.00 0.00 0.00 81 1012.9
20260903005717 28 242 0.0 0.0 0.00 0.00 0.00 81 1012.8
20260903005218 29 242 0.0 3.2 0.00 0.00 0.00 81 1012.8
20260903004711 29 242 3.2 9.7 0.00 0.00 0.00 80 1012.8
20260903004148 29 231 3.2 9.7 0.00 0.00 0.00 80 1012.8
20260903003640 29 195 1.6 8.0 0.00 0.00 0.00 79 1012.7
20260903003115 29 233 1.6 8.0 0.00 0.00 0.00 79 1012.8
20260903002603 29 253 1.6 6.4 0.00 0.00 0.00 78 1012.7
20260903002110 30 241 1.6 8.0 0.00 0.00 0.00 78 1012.8
20260903001601 30 278 1.6 8.0 0.00 0.00 0.00 77 1012.9
20260903001059 30 225 0.0 4.8 0.00 0.00 0.00 77 1012.8
20260903000556 30 246 0.0 4.8 0.00 0.00 0.00 77 1012.9
20260903000028 30 279 1.6 9.7 0.00 0.00 0.00 76 1012.8
20260902235529 30 247 3.2 9.7 0.00 0.00 0.00 76 1012.7
20260902235019 30 219 3.2 8.0 0.00 0.00 0.00 75 1012.8
20260902234518 31 259 1.6 8.0 0.00 0.00 0.00 75 1012.7
20260902233953 31 255 3.2 11.3 0.00 0.00 0.00 75 1012.5
20260902233450 31 241 3.2 11.3 0.00 0.00 0.00 75 1012.6
20260902232929 31 261 3.2 9.7 0.00 0.00 0.00 75 1012.4
20260902232427 31 238 3.2 11.3 0.00 0.00 0.00 74 1012.3
20260902231907 31 236 3.2 11.3 0.00 0.00 0.00 74 1012.5
20260902231400 31 236 3.2 11.3 0.00 0.00 0.00 73 1012.4
20260902230846 31 262 3.2 11.3 0.00 0.00 0.00 73 1012.4
20260902230338 32 163 3.2 8.0 0.00 0.00 0.00 73 1012.4
20260902225817 32 233 3.2 11.3 0.00 0.00 0.00 72 1012.4
20260902225316 32 221 3.2 11.3 0.00 0.00 0.00 71 1012.3
20260902224818 32 221 3.2 6.4 0.00 0.00 0.00 71 1012.3
20260902224319 32 217 3.2 12.9 0.00 0.00 0.00 70 1012.3
20260902223803 32 246 3.2 12.9 0.00 0.00 0.00 70 1012.4
20260902223258 33 234 3.2 8.0 0.00 0.00 0.00 69 1012.3
20260902222759 33 278 3.2 6.4 0.00 0.00 0.00 69 1012.4
20260902222240 33 248 3.2 8.0 0.00 0.00 0.00 69 1012.4
20260902221714 33 211 3.2 12.9 0.00 0.00 0.00 69 1012.4
20260902221156 33 247 3.2 12.9 0.00 0.00 0.00 69 1012.4
20260902220700 33 157 3.2 9.7 0.00 0.00 0.00 70 1012.6
20260902220141 33 222 3.2 12.9 0.00 0.00 0.00 70 1012.6
20260902215642 33 240 3.2 12.9 0.00 0.00 0.00 69 1012.6
20260902215139 34 255 3.2 6.4 0.00 0.00 0.00 68 1012.6
20260902214623 34 252 3.2 8.0 0.00 0.00 0.00 69 1012.7
20260902214104 34 253 4.8 9.7 0.00 0.00 0.00 67 1012.6
20260902213542 34 243 4.8 9.7 0.00 0.00 0.00 67 1012.7
20260902213042 34 198 4.8 14.5 0.00 0.00 0.00 67 1012.8
20260902212543 34 215 3.2 14.5 0.00 0.00 0.00 66 1012.8
20260902212019 34 220 3.2 12.9 0.00 0.00 0.00 66 1012.8
20260902211453 33 247 4.8 14.5 0.00 0.00 0.00 66 1012.8
20260902210929 33 258 4.8 14.5 0.00 0.00 0.00 67 1012.9
20260902210428 34 246 4.8 14.5 0.00 0.00 0.00 65 1012.8
20260902205914 33 252 4.8 14.5 0.00 0.00 0.00 66 1012.8
20260902205347 33 281 4.8 14.5 0.00 0.00 0.00 66 1012.9
20260902204847 34 282 4.8 14.5 0.00 0.00 0.00 65 1013.0
20260902204323 34 234 4.8 12.9 0.00 0.00 0.00 65 1013.1
20260902203754 34 194 3.2 12.9 0.00 0.00 0.00 65 1013.2
20260902203255 35 248 3.2 11.3 0.00 0.00 0.00 65 1013.2
20260902202749 34 269 3.2 11.3 0.00 0.00 0.00 65 1013.3
20260902202245 34 279 4.8 11.3 0.00 0.00 0.00 65 1013.4
20260902201741 34 246 4.8 11.3 0.00 0.00 0.00 66 1013.4
20260902201216 34 175 4.8 12.9 0.00 0.00 0.00 66 1013.5
20260902200648 34 225 4.8 12.9 0.00 0.00 0.00 65 1013.5
20260902200147 34 267 4.8 11.3 0.00 0.00 0.00 65 1013.5
20260902195644 34 186 4.8 11.3 0.00 0.00 0.00 67 1013.6
20260902195138 33 239 4.8 12.9 0.00 0.00 0.00 67 1013.5
20260902194613 33 222 6.4 16.1 0.00 0.00 0.00 68 1013.5
20260902194108 34 217 4.8 16.1 0.00 0.00 0.00 67 1013.6
20260902193606 35 255 3.2 11.3 0.00 0.00 0.00 66 1013.6
20260902193040 35 236 3.2 11.3 0.00 0.00 0.00 67 1013.6
20260902192514 35 224 3.2 12.9 0.00 0.00 0.00 68 1013.6
20260902191946 34 232 4.8 12.9 0.00 0.00 0.00 68 1013.7
20260902191443 34 240 4.8 12.9 0.00 0.00 0.00 67 1013.8
20260902190940 34 256 4.8 14.5 0.00 0.00 0.00 68 1013.9
20260902190438 34 167 4.8 14.5 0.00 0.00 0.00 68 1013.8
20260902185913 33 227 4.8 14.5 0.00 0.00 0.00 68 1013.9
20260902185408 33 200 4.8 14.5 0.00 0.00 0.00 69 1014.0
20260902184842 33 208 4.8 12.9 0.00 0.00 0.00 70 1014.0
20260902184314 34 260 4.8 16.1 0.00 0.00 0.00 69 1014.0
20260902183813 34 173 3.2 16.1 0.00 0.00 0.00 71 1014.0
20260902183245 33 211 3.2 11.3 0.00 0.00 0.00 71 1014.1
20260902182745 33 246 3.2 9.7 0.00 0.00 0.00 72 1014.1
20260902182214 33 218 3.2 8.0 0.00 0.00 0.00 71 1014.2
20260902181650 33 217 3.2 6.4 0.00 0.00 0.00 72 1014.3
20260902181122 32 209 3.2 11.3 0.00 0.00 0.00 73 1014.4
20260902180621 32 200 3.2 11.3 0.00 0.00 0.00 73 1014.4
20260902180053 32 282 4.8 12.9 0.00 0.00 0.00 72 1014.4
20260902175555 32 238 4.8 12.9 0.00 0.00 0.00 71 1014.4
20260902175023 32 266 4.8 12.9 0.00 0.00 0.00 71 1014.6
20260902174500 33 265 4.8 12.9 0.00 0.00 0.00 69 1014.7
20260902174004 33 242 3.2 6.4 0.00 0.00 0.00 70 1014.7
20260902173426 33 219 3.2 8.0 0.00 0.00 0.00 71 1014.8
20260902172924 33 221 3.2 8.0 0.00 0.00 0.00 74 1014.8
20260902172404 33 207 3.2 11.3 0.00 0.00 0.00 73 1014.9
20260902171830 33 204 3.2 6.4 0.00 0.00 0.00 73 1014.9
20260902171329 33 209 3.2 6.4 0.00 0.00 0.00 73 1015.0
20260902170805 33 201 3.2 6.4 0.00 0.00 0.00 73 1015.0
20260902170257 33 216 3.2 6.4 0.00 0.00 0.00 74 1015.1
20260902165734 32 207 3.2 6.4 0.00 0.00 0.00 74 1015.1
20260902165204 32 197 3.2 6.4 0.00 0.00 0.00 75 1015.3
20260902164700 32 196 3.2 6.4 0.00 0.00 0.00 75 1015.3
20260902164206 32 207 3.2 6.4 0.00 0.00 0.00 75 1015.4
20260902163655 32 187 3.2 6.4 0.00 0.00 0.00 75 1015.4
20260902163130 32 210 3.2 8.0 0.00 0.00 0.00 75 1015.4
20260902162606 32 209 3.2 8.0 0.00 0.00 0.00 76 1015.4
20260902162058 32 205 3.2 8.0 0.00 0.00 0.00 76 1015.5
20260902161557 31 204 3.2 8.0 0.00 0.00 0.00 76 1015.7
20260902161053 31 206 3.2 6.4 0.00 0.00 0.00 77 1015.5
20260902160551 31 196 3.2 6.4 0.00 0.00 0.00 78 1015.4
20260902160022 31 192 3.2 6.4 0.00 0.00 0.00 78 1015.4
20260902155519 31 209 3.2 6.4 0.00 0.00 0.00 79 1015.4
20260902155016 30 202 1.6 6.4 0.00 0.00 0.00 80 1015.4
20260902154513 30 225 1.6 6.4 0.00 0.00 0.00 80 1015.4
20260902153948 30 180 1.6 6.4 0.00 0.00 0.00 79 1015.5
20260902153422 30 291 1.6 6.4 0.00 0.00 0.00 80 1015.4
20260902152854 29 184 1.6 6.4 0.00 0.00 0.00 82 1015.5
20260902152354 28 229 1.6 6.4 0.00 0.00 0.00 83 1015.4
20260902151828 28 236 1.6 4.8 0.00 0.00 0.00 83 1015.5
20260902151258 28 267 1.6 4.8 0.00 0.00 0.00 83 1015.5
20260902150730 28 266 1.6 6.4 0.00 0.00 0.00 82 1015.4
20260902150208 28 217 1.6 4.8 0.00 0.00 0.00 82 1015.3
20260902145640 28 217 1.6 4.8 0.00 0.00 0.00 82 1015.3
20260902145112 29 217 1.6 6.4 0.00 0.00 0.00 81 1015.4
20260902144617 29 221 0.0 1.6 0.00 0.00 0.00 83 1015.3
20260902144048 28 221 1.6 6.4 0.00 0.00 0.00 84 1015.3
20260902143522 28 252 1.6 9.7 0.00 0.00 0.00 85 1015.3
20260902143018 28 227 1.6 9.7 0.00 0.00 0.00 85 1015.3
20260902142518 28 237 1.6 6.4 0.00 0.00 0.00 85 1015.2
20260902141955 27 277 3.2 12.9 0.00 0.00 0.00 86 1015.2
20260902141453 27 261 1.6 12.9 0.00 0.00 0.00 86 1015.2
20260902140951 27 184 1.6 11.3 0.00 0.00 0.00 87 1015.3
20260902140449 27 184 3.2 11.3 0.00 0.00 0.00 87 1015.2
20260902135931 27 239 3.2 9.7 0.00 0.00 0.00 88 1015.2
20260902135406 27 243 3.2 14.5 0.00 0.00 0.00 88 1015.3
20260902134844 27 219 3.2 14.5 0.00 0.00 0.00 88 1015.2
20260902134346 27 240 1.6 6.4 0.00 0.00 0.00 88 1015.2
20260902133827 27 225 1.6 6.4 0.00 0.00 0.00 89 1015.2
20260902133325 26 277 1.6 6.4 0.00 0.00 0.00 90 1015.2
20260902132826 26 200 1.6 6.4 0.00 0.00 0.00 90 1015.3
20260902132309 26 148 1.6 9.7 0.00 0.00 0.00 90 1015.2
20260902131808 26 312 1.6 9.7 0.00 0.00 0.00 90 1015.1
20260902131251 26 229 1.6 6.4 0.00 0.00 0.00 91 1015.1
20260902130753 26 238 1.6 8.0 0.00 0.00 0.00 91 1015.1
20260902130235 26 243 1.6 8.0 0.00 0.00 0.00 92 1015.2
20260902125706 25 229 1.6 6.4 0.00 0.00 0.00 92 1015.2
20260902125148 25 220 1.6 6.4 0.00 0.00 0.00 93 1015.2
20260902124645 25 246 1.6 6.4 0.00 0.00 0.00 93 1015.1
20260902124141 25 263 1.6 8.0 0.00 0.00 0.00 93 1015.1
20260902123642 25 243 1.6 8.0 0.00 0.00 0.00 93 1015.2
20260902123120 25 196 1.6 4.8 0.00 0.00 0.00 93 1015.2
20260902122619 25 280 0.0 4.8 0.00 0.00 0.00 94 1015.2
20260902122117 25 280 1.6 6.4 0.00 0.00 0.00 93 1015.0
20260902121547 25 280 1.6 6.4 0.00 0.00 0.00 93 1015.0
20260902121048 25 234 1.6 4.8 0.00 0.00 0.00 94 1015.0
20260902120531 25 267 0.0 4.8 0.00 0.00 0.00 94 1014.9
20260902120028 25 252 0.0 4.8 0.00 0.00 0.00 94 1015.0
20260902115526 25 255 0.0 4.8 0.00 0.00 0.00 94 1015.0
20260902115026 25 257 0.0 4.8 0.00 0.00 0.00 94 1014.9
20260902114522 25 254 0.0 6.4 0.00 0.00 0.00 94 1014.8
20260902114020 25 256 1.6 6.4 0.00 0.00 0.00 94 1014.8
20260902113515 25 259 1.6 4.8 0.00 0.00 0.00 95 1014.8
20260902113018 25 234 1.6 4.8 0.00 0.00 0.00 95 1014.7
20260902112444 24 228 1.6 4.8 0.00 0.00 0.00 95 1014.7
20260902111918 24 256 0.0 4.8 0.00 0.00 0.00 95 1014.5
20260902111421 24 263 0.0 6.4 0.00 0.00 0.00 95 1014.5
20260902110849 24 263 1.6 6.4 0.00 0.00 0.00 95 1014.6
20260902110322 24 273 0.0 11.3 0.00 0.00 0.00 95 1014.6
20260902105819 24 256 0.0 11.3 0.00 0.00 0.00 95 1014.5
20260902105318 24 213 0.0 0.0 0.00 0.00 0.00 95 1014.5
20260902104804 24 213 0.0 0.0 0.00 0.00 0.00 95 1014.4
20260902104308 24 248 0.0 0.0 0.00 0.00 0.00 95 1014.4
20260902103755 24 248 0.0 0.0 0.00 0.00 0.00 95 1014.6
20260902103257 24 213 0.0 0.0 0.00 0.00 0.00 95 1014.4
20260902102732 24 213 0.0 0.0 0.00 0.00 0.00 95 1014.3
20260902102231 24 200 0.0 0.0 0.00 0.00 0.00 95 1014.3
20260902101658 24 221 0.0 0.0 0.00 0.00 0.00 95 1014.4
20260902101131 24 221 0.0 1.6 0.00 0.00 0.00 95 1014.4
20260902100605 24 221 0.0 1.6 0.00 0.00 0.00 95 1014.5
20260902100037 24 207 0.0 0.0 0.00 0.00 0.00 95 1014.4
20260902095536 24 198 0.0 0.0 0.00 0.00 0.00 95 1014.4
20260902095031 24 210 0.0 0.0 0.00 0.00 0.00 95 1014.4
20260902094529 24 209 0.0 0.0 0.00 0.00 0.00 95 1014.5
20260902094021 24 209 0.0 0.0 0.00 0.00 0.00 95 1014.4
20260902093520 24 209 0.0 0.0 0.00 0.00 0.00 95 1014.4
20260902092953 24 205 0.0 0.0 0.00 0.00 0.00 95 1014.4
20260902092428 24 205 0.0 0.0 0.00 0.00 0.00 95 1014.4
20260902091915 24 216 0.0 0.0 0.00 0.00 0.00 95 1014.4
20260902091416 24 206 0.0 0.0 0.00 0.00 0.00 95 1014.6
20260902090347 24 244 0.0 0.0 0.00 0.00 0.00 95 1014.4
20260902085836 24 219 0.0 0.0 0.00 0.00 0.00 95 1014.5
20260902085310 24 219 0.0 0.0 0.00 0.00 0.00 95 1014.4
20260902084807 24 219 0.0 0.0 0.00 0.00 0.00 95 1014.4
20260902084304 24 219 0.0 0.0 0.00 0.00 0.00 95 1014.4
20260902083803 24 220 0.0 0.0 0.00 0.00 0.00 95 1014.5
20260902083242 24 220 0.0 0.0 0.00 0.00 0.00 95 1014.5
20260902082732 24 220 0.0 0.0 0.00 0.00 0.00 95 1014.4
20260902082228 24 220 0.0 0.0 0.00 0.00 0.00 95 1014.5
20260902081725 24 220 0.0 0.0 0.00 0.00 0.00 95 1014.5
20260902081201 24 220 0.0 0.0 0.00 0.00 0.00 95 1014.5
20260902080655 24 220 0.0 0.0 0.00 0.00 0.00 95 1014.4
20260902080155 24 220 0.0 0.0 0.00 0.00 0.00 95 1014.4
20260902075649 24 220 0.0 0.0 0.00 0.00 0.00 95 1014.4
20260902075146 24 220 0.0 0.0 0.00 0.00 0.00 94 1014.4
20260902074619 24 220 0.0 0.0 0.00 0.00 0.00 94 1014.4
20260902074051 24 220 0.0 0.0 0.00 0.00 0.00 94 1014.3
20260902073549 24 220 0.0 0.0 0.00 0.00 0.00 94 1014.2
20260902073024 24 220 0.0 0.0 0.00 0.00 0.00 94 1014.3
20260902072454 24 220 0.0 0.0 0.00 0.00 0.00 94 1014.1
20260902071950 24 220 0.0 0.0 0.00 0.00 0.00 94 1014.2
20260902071424 24 220 0.0 0.0 0.00 0.00 0.00 94 1014.3
20260902070856 25 220 0.0 0.0 0.00 0.00 0.00 94 1014.2
20260902070358 25 220 0.0 0.0 0.00 0.00 0.00 93 1014.3
20260902065828 25 220 0.0 0.0 0.00 0.00 0.00 93 1014.3
20260902065323 24 220 0.0 0.0 0.00 0.00 0.00 93 1014.3
20260902064821 24 220 0.0 0.0 0.00 0.00 0.00 93 1014.4
20260902064253 24 220 0.0 0.0 0.00 0.00 0.00 92 1014.5
20260902063751 24 220 0.0 0.0 0.00 0.00 0.00 92 1014.4
20260902063226 24 300 0.0 0.0 0.00 0.00 0.00 92 1014.6
20260902062657 24 300 0.0 0.0 0.00 0.00 0.00 91 1014.5
20260902062156 24 300 0.0 0.0 0.00 0.00 0.00 91 1014.6
20260902061628 24 300 0.0 0.0 0.00 0.00 0.00 91 1014.6
20260902061127 24 300 0.0 0.0 0.00 0.00 0.00 91 1014.6
20260902060620 24 300 0.0 0.0 0.00 0.00 0.00 91 1014.6